Home > Weather > Laval > Past weeks

Flag for Canada Past Weather in Laval, Quebec, Canada — Yesterday and Last 2 Weeks

Now
61 °F

Passing clouds.


Feels Like: 61 °F
Forecast: 61 / 79 °F
Wind: No wind

Location: Montreal / Mirabel

Current Time: Jul 30, 2016 at 1:34:27 AM

Latest Report: Jul 30, 2016 at 1:00 AM


Visibility: 25 mi

Pressure: 30.04 "Hg

Humidity: 83%

Dew Point: 55 °F

Location of LavalLocation

Past Weather in Laval — Graph

°F

Laval Temperature Yesterday

Maximum temperature yesterday: 77 °F (at 4:00 PM)
Minimum temperature yesterday: 57 °F (at 4:00 AM)
Average temperature yesterday: 68 °F

High & Low Weather Summary for the Past Weeks

 TemperatureHumidityPressure
High84 °F (Jul 22, 2:00 PM)100% (Jul 15, 3:00 AM)30.20 "Hg (Jul 15, 3:00 AM)
Low54 °F (Jul 20, 3:00 AM)41% (Jul 19, 5:00 PM)29.68 "Hg (Jul 22, 7:00 PM)
Average69 °F77%29.92 "Hg
* Reported Jul 15 12:00 AM — Jul 30 12:00 AM, Laval, Weather by CustomWeather, © 2016

Note: Actual official high and low records may vary slightly from our data, if they occured in-between our weather recording intervals... More about our weather records

Advertising

Laval Weather History for the Previous 24 Hours

Scroll right to see more
 ConditionsComfort  
Time TempWeatherWind HumidityBarometerVisibility
12:00 AM
Sat, Jul 30
63 °FPassing clouds.5 mph77%30.03 "Hg25 mi
11:00 PM
Fri, Jul 29
66 °FPassing clouds.5 mph68%30.02 "Hg25 mi
10:00 PM68 °FPassing clouds.7 mph64%30.02 "Hg25 mi
9:00 PM68 °FBroken clouds.5 mph64%30.00 "Hg25 mi
8:00 PM70 °FBroken clouds.2 mph69%29.98 "Hg45 mi
7:00 PM72 °FScattered clouds.2 mph61%29.97 "Hg45 mi
6:00 PM73 °FBroken clouds.6 mph53%29.96 "Hg45 mi
5:00 PM75 °FPartly sunny.8 mph54%29.96 "Hg45 mi
4:00 PM77 °FPartly sunny.3 mph54%29.96 "Hg45 mi
3:00 PM75 °FBroken clouds.3 mph54%29.96 "Hg45 mi
2:00 PM73 °FPartly sunny.2 mph61%29.96 "Hg45 mi
1:00 PM73 °FPartly sunny.No wind57%29.97 "Hg45 mi
12:00 PM73 °FBroken clouds.5 mph61%29.98 "Hg45 mi
11:00 AM73 °FBroken clouds.6 mph57%29.98 "Hg45 mi
10:00 AM72 °FBroken clouds.3 mph65%29.98 "Hg45 mi
9:00 AM68 °FPartly sunny.3 mph73%29.97 "Hg45 mi
8:00 AM64 °FBroken clouds.5 mph78%29.97 "Hg45 mi
7:00 AM61 °FBroken clouds.No wind83%29.96 "Hg45 mi
6:00 AM57 °FPassing clouds.2 mph88%29.95 "Hg45 mi
5:00 AM61 °FPartly cloudy.3 mph83%29.94 "Hg45 mi
4:00 AM57 °FPassing clouds.2 mph94%29.94 "Hg25 mi
3:00 AM59 °FClear.2 mph88%29.93 "Hg25 mi
2:00 AM63 °FPassing clouds.2 mph83%29.93 "Hg25 mi
1:00 AM64 °FPassing clouds.2 mph78%29.93 "Hg25 mi
Weather by CustomWeather, © 2016

See weather overviewHow to use our weather pages